Time,TemperatureF,DewpointF,PressureIn,WindDirection,WindDirectionDegrees,WindSpeedMPH,WindSpeedGustMPH,Humidity,HourlyPrecipIn,Conditions,Clouds,dailyrainin,SoftwareType,DateUTC
2013-04-13 00:03:00,33.5,28.9,29.84,NW,304,3.0,11.0,83,0.00,,,0.00,Wunderground v.1.15,2013-04-13 05:03:00,
2013-04-13 00:09:00,33.5,28.9,29.84,WNW,295,4.0,4.0,83,0.00,,,0.00,Wunderground v.1.15,2013-04-13 05:09:00,
2013-04-13 00:15:00,33.5,29.2,29.84,WSW,257,3.0,11.0,84,0.00,,,0.00,Wunderground v.1.15,2013-04-13 05:15:00,
2013-04-13 00:21:00,33.5,29.2,29.84,WSW,250,3.0,11.0,84,0.00,,,0.00,Wunderground v.1.15,2013-04-13 05:21:00,
2013-04-13 00:27:00,33.4,29.4,29.84,West,265,3.0,11.0,85,0.00,,,0.00,Wunderground v.1.15,2013-04-13 05:27:00,
2013-04-13 00:33:00,33.4,29.4,29.84,WNW,295,4.0,11.0,85,0.00,,,0.00,Wunderground v.1.15,2013-04-13 05:33:00,
2013-04-13 00:39:00,33.4,29.4,29.84,NW,314,4.0,4.0,85,0.00,,,0.00,Wunderground v.1.15,2013-04-13 05:39:00,
2013-04-13 00:45:00,33.4,29.1,29.84,West,269,4.0,11.0,84,0.00,,,0.00,Wunderground v.1.15,2013-04-13 05:45:00,
2013-04-13 00:51:00,33.4,29.1,29.84,NW,307,3.0,11.0,84,0.00,,,0.00,Wunderground v.1.15,2013-04-13 05:51:00,
2013-04-13 00:57:00,33.3,29.0,29.85,WNW,297,5.0,11.0,84,0.00,,,0.00,Wunderground v.1.15,2013-04-13 05:57:00,
2013-04-13 01:03:00,33.3,29.0,29.84,WSW,258,5.0,11.0,84,0.00,,,0.00,Wunderground v.1.15,2013-04-13 06:03:00,
2013-04-13 01:09:00,33.3,29.0,29.85,WNW,293,4.0,11.0,84,0.00,,,0.00,Wunderground v.1.15,2013-04-13 06:09:00,
2013-04-13 01:15:00,33.2,28.9,29.85,SE,136,4.0,11.0,84,0.00,,,0.00,Wunderground v.1.15,2013-04-13 06:15:00,
2013-04-13 01:21:00,33.2,28.9,29.85,WNW,298,4.0,11.0,84,0.00,,,0.00,Wunderground v.1.15,2013-04-13 06:21:00,
2013-04-13 01:27:00,33.2,28.9,29.85,NW,315,4.0,11.0,84,0.00,,,0.00,Wunderground v.1.15,2013-04-13 06:27:00,
2013-04-13 01:33:00,33.1,28.8,29.85,West,260,4.0,11.0,84,0.00,,,0.00,Wunderground v.1.15,2013-04-13 06:33:00,
2013-04-13 01:39:00,33.1,29.1,29.85,WNW,283,3.0,11.0,85,0.00,,,0.00,Wunderground v.1.15,2013-04-13 06:39:00,
2013-04-13 01:45:00,33.0,29.0,29.85,NW,315,3.0,11.0,85,0.00,,,0.00,Wunderground v.1.15,2013-04-13 06:45:00,
2013-04-13 01:51:00,32.9,28.9,29.85,WNW,300,3.0,6.0,85,0.00,,,0.00,Wunderground v.1.15,2013-04-13 06:51:00,
2013-04-13 01:57:00,32.9,29.2,29.84,NW,313,3.0,11.0,86,0.00,,,0.00,Wunderground v.1.15,2013-04-13 06:57:00,
2013-04-13 02:03:00,32.9,29.2,29.84,West,262,2.0,11.0,86,0.00,,,0.00,Wunderground v.1.15,2013-04-13 07:03:00,
2013-04-13 02:09:00,32.9,28.9,29.84,NNW,337,3.0,11.0,85,0.00,,,0.00,Wunderground v.1.15,2013-04-13 07:09:00,
2013-04-13 02:15:00,32.8,28.5,29.84,WNW,302,4.0,11.0,84,0.00,,,0.00,Wunderground v.1.15,2013-04-13 07:15:00,
2013-04-13 02:21:00,32.8,28.8,29.84,WNW,300,3.0,5.0,85,0.00,,,0.00,Wunderground v.1.15,2013-04-13 07:21:00,
2013-04-13 02:27:00,32.8,28.8,29.84,WNW,290,3.0,11.0,85,0.00,,,0.00,Wunderground v.1.15,2013-04-13 07:27:00,
2013-04-13 02:33:00,32.8,28.8,29.84,West,263,3.0,11.0,85,0.00,,,0.00,Wunderground v.1.15,2013-04-13 07:33:00,
2013-04-13 02:39:00,32.7,29.0,29.84,WNW,302,3.0,11.0,86,0.00,,,0.00,Wunderground v.1.15,2013-04-13 07:39:00,
2013-04-13 02:45:00,32.5,28.8,29.84,WNW,294,3.0,11.0,86,0.00,,,0.00,Wunderground v.1.15,2013-04-13 07:45:00,
2013-04-13 02:52:00,32.4,28.7,29.84,West,271,3.0,11.0,86,0.00,,,0.00,Wunderground v.1.15,2013-04-13 07:52:00,
2013-04-13 02:57:00,32.3,28.6,29.84,NW,316,3.0,11.0,86,0.00,,,0.00,Wunderground v.1.15,2013-04-13 07:57:00,
2013-04-13 03:03:00,32.2,27.6,29.84,NW,307,3.0,11.0,83,0.00,,,0.00,Wunderground v.1.15,2013-04-13 08:03:00,
2013-04-13 03:09:00,32.1,27.8,29.84,West,274,4.0,11.0,84,0.00,,,0.00,Wunderground v.1.15,2013-04-13 08:09:00,
2013-04-13 03:15:00,32.0,28.0,29.84,NW,315,3.0,11.0,85,0.00,,,0.00,Wunderground v.1.15,2013-04-13 08:15:00,
2013-04-13 03:21:00,32.0,28.0,29.84,WNW,293,3.0,11.0,85,0.00,,,0.00,Wunderground v.1.15,2013-04-13 08:21:00,
2013-04-13 03:27:00,32.0,28.0,29.84,WNW,296,3.0,11.0,85,0.00,,,0.00,Wunderground v.1.15,2013-04-13 08:27:00,
2013-04-13 03:33:00,32.0,28.0,29.84,NW,321,2.0,11.0,85,0.00,,,0.00,Wunderground v.1.15,2013-04-13 08:33:00,
2013-04-13 03:39:00,32.0,28.0,29.84,West,276,3.0,3.0,85,0.00,,,0.00,Wunderground v.1.15,2013-04-13 08:39:00,
2013-04-13 03:45:00,32.0,27.7,29.84,WNW,295,3.0,11.0,84,0.00,,,0.00,Wunderground v.1.15,2013-04-13 08:45:00,
2013-04-13 03:52:00,32.0,27.4,29.84,West,276,4.0,6.0,83,0.00,,,0.00,Wunderground v.1.15,2013-04-13 08:52:00,
2013-04-13 03:57:00,32.0,27.4,29.84,NNW,341,4.0,11.0,83,0.00,,,0.00,Wunderground v.1.15,2013-04-13 08:57:00,
2013-04-13 04:03:00,32.0,27.4,29.84,NW,304,4.0,11.0,83,0.00,,,0.00,Wunderground v.1.15,2013-04-13 09:03:00,
2013-04-13 04:09:00,31.9,27.6,29.84,WNW,283,3.0,3.0,84,0.00,,,0.00,Wunderground v.1.15,2013-04-13 09:09:00,
2013-04-13 04:15:00,31.9,27.3,29.85,NW,308,3.0,11.0,83,0.00,,,0.00,Wunderground v.1.15,2013-04-13 09:15:00,
2013-04-13 04:22:00,32.0,27.4,29.85,WNW,287,5.0,11.0,83,0.00,,,0.00,Wunderground v.1.15,2013-04-13 09:22:00,
2013-04-13 04:27:00,31.9,27.6,29.85,NW,309,4.0,11.0,84,0.00,,,0.00,Wunderground v.1.15,2013-04-13 09:27:00,
2013-04-13 04:34:00,31.9,27.6,29.85,NW,312,4.0,11.0,84,0.00,,,0.00,Wunderground v.1.15,2013-04-13 09:34:00,
2013-04-13 04:39:00,31.9,27.6,29.85,WNW,284,4.0,4.0,84,0.00,,,0.00,Wunderground v.1.15,2013-04-13 09:39:00,
2013-04-13 04:47:00,31.8,27.5,29.85,West,276,4.0,11.0,84,0.00,,,0.00,Wunderground v.1.15,2013-04-13 09:47:00,
2013-04-13 04:53:00,31.8,27.5,29.85,NNW,336,3.0,11.0,84,0.00,,,0.00,Wunderground v.1.15,2013-04-13 09:53:00,
2013-04-13 04:59:00,31.7,27.4,29.85,WNW,300,3.0,3.0,84,0.00,,,0.00,Wunderground v.1.15,2013-04-13 09:59:00,
2013-04-13 05:05:00,31.6,27.3,29.85,West,274,3.0,11.0,84,0.00,,,0.00,Wunderground v.1.15,2013-04-13 10:05:00,
2013-04-13 05:11:00,31.4,27.1,29.85,WNW,286,3.0,11.0,84,0.00,,,0.00,Wunderground v.1.15,2013-04-13 10:11:00,
2013-04-13 05:17:00,31.2,26.9,29.85,WNW,283,3.0,11.0,84,0.00,,,0.00,Wunderground v.1.15,2013-04-13 10:17:00,
2013-04-13 05:23:00,31.1,26.8,29.85,WSW,250,3.0,11.0,84,0.00,,,0.00,Wunderground v.1.15,2013-04-13 10:23:00,
2013-04-13 05:29:00,31.1,26.8,29.85,NW,315,3.0,3.0,84,0.00,,,0.00,Wunderground v.1.15,2013-04-13 10:29:00,
2013-04-13 05:36:00,31.0,26.7,29.85,WSW,255,3.0,11.0,84,0.00,,,0.00,Wunderground v.1.15,2013-04-13 10:36:00,
2013-04-13 05:41:00,30.9,26.6,29.85,WSW,257,4.0,4.0,84,0.00,,,0.00,Wunderground v.1.15,2013-04-13 10:41:00,
2013-04-13 05:47:00,31.0,26.7,29.85,WNW,293,3.0,11.0,84,0.00,,,0.00,Wunderground v.1.15,2013-04-13 10:47:00,
2013-04-13 05:53:00,31.0,26.4,29.85,WNW,295,2.0,11.0,83,0.00,,,0.00,Wunderground v.1.15,2013-04-13 10:53:00,
2013-04-13 06:00:00,31.2,26.6,29.85,West,262,3.0,3.0,83,0.00,,,0.00,Wunderground v.1.15,2013-04-13 11:00:00,
2013-04-13 06:05:00,31.2,26.6,29.85,NW,305,3.0,11.0,83,0.00,,,0.00,Wunderground v.1.15,2013-04-13 11:05:00,
2013-04-13 06:13:00,31.3,26.7,29.85,NNW,329,3.0,11.0,83,0.00,,,0.00,Wunderground v.1.15,2013-04-13 11:13:00,
2013-04-13 06:19:00,31.4,26.5,29.86,WNW,302,3.0,11.0,82,0.00,,,0.00,Wunderground v.1.15,2013-04-13 11:19:00,
2013-04-13 06:25:00,31.5,26.6,29.86,NW,309,3.0,11.0,82,0.00,,,0.00,Wunderground v.1.15,2013-04-13 11:25:00,
2013-04-13 06:31:00,31.5,26.3,29.86,WNW,293,4.0,11.0,81,0.00,,,0.00,Wunderground v.1.15,2013-04-13 11:31:00,
2013-04-13 06:38:00,31.5,26.0,29.86,NW,321,4.0,11.0,80,0.00,,,0.00,Wunderground v.1.15,2013-04-13 11:38:00,
2013-04-13 06:43:00,31.5,26.0,29.87,WNW,298,3.0,11.0,80,0.00,,,0.00,Wunderground v.1.15,2013-04-13 11:43:00,
2013-04-13 06:49:00,31.4,25.9,29.87,WNW,300,4.0,11.0,80,0.00,,,0.00,Wunderground v.1.15,2013-04-13 11:49:00,
2013-04-13 06:55:00,31.4,25.9,29.87,West,269,4.0,11.0,80,0.00,,,0.00,Wunderground v.1.15,2013-04-13 11:55:00,
2013-04-13 07:07:00,31.4,26.5,29.88,West,278,3.0,11.0,82,0.00,,,0.00,Wunderground v.1.15,2013-04-13 12:07:00,
2013-04-13 07:13:00,31.4,26.5,29.88,West,265,4.0,11.0,82,0.00,,,0.00,Wunderground v.1.15,2013-04-13 12:13:00,
2013-04-13 07:19:00,31.4,26.5,29.88,West,279,3.0,3.0,82,0.00,,,0.00,Wunderground v.1.15,2013-04-13 12:19:00,
2013-04-13 07:25:00,31.5,25.7,29.89,NW,307,4.0,11.0,79,0.00,,,0.00,Wunderground v.1.15,2013-04-13 12:25:00,
2013-04-13 07:32:00,31.6,25.2,29.88,NW,304,4.0,5.0,77,0.00,,,0.00,Wunderground v.1.15,2013-04-13 12:32:00,
2013-04-13 07:37:00,31.6,25.2,29.89,West,269,3.0,11.0,77,0.00,,,0.00,Wunderground v.1.15,2013-04-13 12:37:00,
2013-04-13 07:43:00,31.7,25.0,29.89,WNW,283,4.0,11.0,76,0.00,,,0.00,Wunderground v.1.15,2013-04-13 12:43:00,
2013-04-13 07:49:00,31.9,25.5,29.89,WNW,295,3.0,11.0,77,0.00,,,0.00,Wunderground v.1.15,2013-04-13 12:49:00,
2013-04-13 07:55:00,31.9,25.8,29.89,NW,307,3.0,11.0,78,0.00,,,0.00,Wunderground v.1.15,2013-04-13 12:55:00,
2013-04-13 08:02:00,32.0,26.2,29.89,NW,307,4.0,11.0,79,0.00,,,0.00,Wunderground v.1.15,2013-04-13 13:02:00,
2013-04-13 08:07:00,31.9,25.8,29.89,West,274,5.0,11.0,78,0.00,,,0.00,Wunderground v.1.15,2013-04-13 13:07:00,
2013-04-13 08:13:00,31.8,25.4,29.89,WNW,291,6.0,11.0,77,0.00,,,0.00,Wunderground v.1.15,2013-04-13 13:13:00,
2013-04-13 08:19:00,31.8,25.4,29.90,WSW,244,5.0,11.0,77,0.00,,,0.00,Wunderground v.1.15,2013-04-13 13:19:00,
2013-04-13 08:25:00,31.6,25.2,29.90,North,5,5.0,11.0,77,0.00,,,0.00,Wunderground v.1.15,2013-04-13 13:25:00,
2013-04-13 08:33:00,31.7,25.6,29.89,NNW,328,4.0,8.0,78,0.00,,,0.00,Wunderground v.1.15,2013-04-13 13:33:00,
2013-04-13 08:39:00,31.7,25.9,29.89,NW,311,4.0,11.0,79,0.00,,,0.00,Wunderground v.1.15,2013-04-13 13:39:00,
2013-04-13 08:45:00,31.8,25.7,29.89,WNW,295,4.0,11.0,78,0.00,,,0.00,Wunderground v.1.15,2013-04-13 13:45:00,
2013-04-13 08:51:00,31.9,25.8,29.90,NW,309,5.0,11.0,78,0.00,,,0.00,Wunderground v.1.15,2013-04-13 13:51:00,
2013-04-13 08:57:00,32.1,26.0,29.90,NW,311,4.0,11.0,78,0.00,,,0.00,Wunderground v.1.15,2013-04-13 13:57:00,
2013-04-13 09:03:00,32.2,26.1,29.90,West,270,3.0,11.0,78,0.00,,,0.00,Wunderground v.1.15,2013-04-13 14:03:00,
2013-04-13 09:09:00,32.1,26.0,29.90,West,281,4.0,11.0,78,0.00,,,0.00,Wunderground v.1.15,2013-04-13 14:09:00,
2013-04-13 09:15:00,32.1,26.0,29.90,NW,318,4.0,11.0,78,0.00,,,0.00,Wunderground v.1.15,2013-04-13 14:15:00,
2013-04-13 09:22:00,32.2,25.8,29.90,West,272,4.0,11.0,77,0.00,,,0.00,Wunderground v.1.15,2013-04-13 14:22:00,
2013-04-13 09:27:00,32.3,25.9,29.91,NNW,329,4.0,11.0,77,0.00,,,0.00,Wunderground v.1.15,2013-04-13 14:27:00,
2013-04-13 09:34:00,32.1,26.0,29.91,WNW,293,5.0,11.0,78,0.00,,,0.00,Wunderground v.1.15,2013-04-13 14:34:00,
2013-04-13 09:39:00,32.1,26.3,29.91,WNW,290,5.0,11.0,79,0.00,,,0.00,Wunderground v.1.15,2013-04-13 14:39:00,
2013-04-13 09:45:00,32.1,26.3,29.92,WNW,295,4.0,11.0,79,0.00,,,0.00,Wunderground v.1.15,2013-04-13 14:45:00,
2013-04-13 09:51:00,32.2,26.4,29.92,NW,321,4.0,6.0,79,0.00,,,0.00,Wunderground v.1.15,2013-04-13 14:51:00,
2013-04-13 09:59:00,32.2,26.4,29.92,NW,309,4.0,4.0,79,0.00,,,0.00,Wunderground v.1.15,2013-04-13 14:59:00,
2013-04-13 10:05:00,32.3,26.5,29.92,West,260,4.0,11.0,79,0.00,,,0.00,Wunderground v.1.15,2013-04-13 15:05:00,
2013-04-13 10:11:00,32.3,26.5,29.92,WNW,301,5.0,11.0,79,0.00,,,0.00,Wunderground v.1.15,2013-04-13 15:11:00,
2013-04-13 10:17:00,32.3,26.2,29.93,West,265,5.0,11.0,78,0.00,,,0.00,Wunderground v.1.15,2013-04-13 15:17:00,
2013-04-13 10:23:00,32.7,26.6,29.93,NW,304,5.0,11.0,78,0.00,,,0.00,Wunderground v.1.15,2013-04-13 15:23:00,
2013-04-13 10:29:00,32.9,26.5,29.93,WNW,295,5.0,5.0,77,0.00,,,0.00,Wunderground v.1.15,2013-04-13 15:29:00,
2013-04-13 10:35:00,33.2,26.8,29.93,WNW,293,4.0,11.0,77,0.00,,,0.00,Wunderground v.1.15,2013-04-13 15:35:00,
2013-04-13 10:41:00,33.6,27.2,29.93,West,276,3.0,7.0,77,0.00,,,0.00,Wunderground v.1.15,2013-04-13 15:41:00,
2013-04-13 10:47:00,33.9,27.1,29.92,West,262,4.0,11.0,76,0.00,,,0.00,Wunderground v.1.15,2013-04-13 15:47:00,
2013-04-13 10:53:00,34.4,27.6,29.92,NW,307,5.0,11.0,76,0.00,,,0.00,Wunderground v.1.15,2013-04-13 15:53:00,
2013-04-13 10:59:00,34.8,27.4,29.93,WNW,293,5.0,5.0,74,0.00,,,0.00,Wunderground v.1.15,2013-04-13 15:59:00,
2013-04-13 11:05:00,35.0,27.5,29.93,WNW,284,5.0,11.0,74,0.00,,,0.00,Wunderground v.1.15,2013-04-13 16:05:00,
2013-04-13 11:12:00,35.5,28.0,29.93,West,273,5.0,11.0,74,0.00,,,0.00,Wunderground v.1.15,2013-04-13 16:12:00,
2013-04-13 11:17:00,35.6,28.1,29.93,West,273,4.0,11.0,74,0.00,,,0.00,Wunderground v.1.15,2013-04-13 16:17:00,
2013-04-13 11:23:00,35.5,28.0,29.93,WNW,292,4.0,11.0,74,0.00,,,0.00,Wunderground v.1.15,2013-04-13 16:23:00,
2013-04-13 11:29:00,35.9,27.7,29.93,WNW,287,4.0,11.0,72,0.00,,,0.00,Wunderground v.1.15,2013-04-13 16:29:00,
2013-04-13 11:36:00,36.1,27.6,29.93,West,262,5.0,11.0,71,0.00,,,0.00,Wunderground v.1.15,2013-04-13 16:36:00,
2013-04-13 11:41:00,36.1,27.9,29.92,West,267,4.0,11.0,72,0.00,,,0.00,Wunderground v.1.15,2013-04-13 16:41:00,
2013-04-13 11:47:00,36.3,28.1,29.92,WNW,295,5.0,11.0,72,0.00,,,0.00,Wunderground v.1.15,2013-04-13 16:47:00,
2013-04-13 11:53:00,36.5,28.0,29.92,WSW,239,5.0,10.0,71,0.00,,,0.00,Wunderground v.1.15,2013-04-13 16:53:00,
2013-04-13 11:59:00,37.1,28.6,29.91,WNW,295,5.0,11.0,71,0.00,,,0.00,Wunderground v.1.15,2013-04-13 16:59:00,
2013-04-13 12:05:00,37.2,28.0,29.91,West,273,5.0,11.0,69,0.00,,,0.00,Wunderground v.1.15,2013-04-13 17:05:00,
2013-04-13 12:13:00,37.9,29.0,29.91,WSW,242,5.0,11.0,70,0.00,,,0.00,Wunderground v.1.15,2013-04-13 17:13:00,
2013-04-13 12:19:00,38.1,27.7,29.91,West,260,5.0,11.0,66,0.00,,,0.00,Wunderground v.1.15,2013-04-13 17:19:00,
2013-04-13 12:25:00,38.0,27.6,29.91,NW,314,5.0,11.0,66,0.00,,,0.00,Wunderground v.1.15,2013-04-13 17:25:00,
2013-04-13 12:31:00,37.9,27.5,29.91,WNW,293,6.0,11.0,66,0.00,,,0.00,Wunderground v.1.15,2013-04-13 17:31:00,
2013-04-13 12:37:00,38.4,28.8,29.91,WSW,256,6.0,11.0,68,0.00,,,0.00,Wunderground v.1.15,2013-04-13 17:37:00,
2013-04-13 12:43:00,38.3,28.3,29.91,NW,318,5.0,11.0,67,0.00,,,0.00,Wunderground v.1.15,2013-04-13 17:43:00,
2013-04-13 12:49:00,38.5,28.1,29.91,West,281,5.0,5.0,66,0.00,,,0.00,Wunderground v.1.15,2013-04-13 17:49:00,
2013-04-13 12:55:00,38.8,28.4,29.91,WNW,299,6.0,11.0,66,0.00,,,0.00,Wunderground v.1.15,2013-04-13 17:55:00,
2013-04-13 13:01:00,39.5,29.8,29.91,WNW,287,6.0,12.0,68,0.00,,,0.00,Wunderground v.1.15,2013-04-13 18:01:00,
2013-04-13 13:07:00,39.5,29.1,29.91,WNW,285,5.0,12.0,66,0.00,,,0.00,Wunderground v.1.15,2013-04-13 18:07:00,
2013-04-13 13:13:00,39.4,29.0,29.91,North,351,4.0,11.0,66,0.00,,,0.00,Wunderground v.1.15,2013-04-13 18:13:00,
2013-04-13 13:19:00,39.3,28.9,29.91,West,281,5.0,11.0,66,0.00,,,0.00,Wunderground v.1.15,2013-04-13 18:19:00,
2013-04-13 13:25:00,39.3,29.6,29.91,NW,311,5.0,11.0,68,0.00,,,0.00,Wunderground v.1.15,2013-04-13 18:25:00,
2013-04-13 13:27:00,39.5,29.4,29.91,NW,315,4.0,11.0,67,0.00,,,0.00,Wunderground v.1.15,2013-04-13 18:27:00,
2013-04-13 13:29:00,39.6,29.5,29.91,SW,229,4.0,11.0,67,0.00,,,0.00,Wunderground v.1.15,2013-04-13 18:29:00,
2013-04-13 13:31:00,39.7,29.3,29.91,NW,306,4.0,11.0,66,0.00,,,0.00,Wunderground v.1.15,2013-04-13 18:31:00,
2013-04-13 13:33:00,39.7,29.3,29.91,NW,304,4.0,11.0,66,0.00,,,0.00,Wunderground v.1.15,2013-04-13 18:33:00,
2013-04-13 13:39:00,39.9,29.8,29.90,West,277,4.0,4.0,67,0.00,,,0.00,Wunderground v.1.15,2013-04-13 18:39:00,
2013-04-13 13:45:00,40.8,29.6,29.90,NW,308,4.0,11.0,64,0.00,,,0.00,Wunderground v.1.15,2013-04-13 18:45:00,
2013-04-13 13:51:00,40.6,29.7,29.90,WNW,293,5.0,11.0,65,0.00,,,0.00,Wunderground v.1.15,2013-04-13 18:51:00,
2013-04-13 13:57:00,40.9,30.0,29.90,West,281,5.0,11.0,65,0.00,,,0.00,Wunderground v.1.15,2013-04-13 18:57:00,
2013-04-13 14:03:00,41.3,30.8,29.89,NW,322,3.0,11.0,66,0.00,,,0.00,Wunderground v.1.15,2013-04-13 19:03:00,
2013-04-13 14:09:00,40.8,29.9,29.89,NW,315,3.0,11.0,65,0.00,,,0.00,Wunderground v.1.15,2013-04-13 19:09:00,
2013-04-13 14:15:00,41.4,30.9,29.89,West,276,5.0,11.0,66,0.00,,,0.00,Wunderground v.1.15,2013-04-13 19:15:00,
2013-04-13 14:21:00,42.5,30.0,29.89,West,276,4.0,11.0,61,0.00,,,0.00,Wunderground v.1.15,2013-04-13 19:21:00,
2013-04-13 14:27:00,43.1,31.4,29.89,NW,309,5.0,11.0,63,0.00,,,0.00,Wunderground v.1.15,2013-04-13 19:27:00,
2013-04-13 14:33:00,43.2,29.8,29.89,NW,321,4.0,11.0,59,0.00,,,0.00,Wunderground v.1.15,2013-04-13 19:33:00,
2013-04-13 14:39:00,42.6,29.7,29.89,WNW,297,4.0,11.0,60,0.00,,,0.00,Wunderground v.1.15,2013-04-13 19:39:00,
2013-04-13 14:45:00,42.3,29.8,29.88,NW,308,4.0,11.0,61,0.00,,,0.00,Wunderground v.1.15,2013-04-13 19:45:00,
2013-04-13 14:51:00,42.3,30.2,29.88,NW,319,4.0,11.0,62,0.00,,,0.00,Wunderground v.1.15,2013-04-13 19:51:00,
2013-04-13 14:57:00,42.5,30.4,29.88,NW,315,3.0,11.0,62,0.00,,,0.00,Wunderground v.1.15,2013-04-13 19:57:00,
2013-04-13 15:03:00,42.8,30.3,29.87,SW,233,4.0,11.0,61,0.00,,,0.00,Wunderground v.1.15,2013-04-13 20:03:00,
2013-04-13 15:09:00,43.7,30.7,29.87,West,278,4.0,4.0,60,0.00,,,0.00,Wunderground v.1.15,2013-04-13 20:09:00,
2013-04-13 15:15:00,44.0,31.0,29.87,NW,304,4.0,11.0,60,0.00,,,0.00,Wunderground v.1.15,2013-04-13 20:15:00,
2013-04-13 15:21:00,44.1,30.3,29.87,SW,231,5.0,11.0,58,0.00,,,0.00,Wunderground v.1.15,2013-04-13 20:21:00,
2013-04-13 15:27:00,44.7,30.8,29.86,WSW,255,5.0,11.0,58,0.00,,,0.00,Wunderground v.1.15,2013-04-13 20:27:00,
2013-04-13 15:33:00,45.2,30.9,29.87,NW,319,5.0,11.0,57,0.00,,,0.00,Wunderground v.1.15,2013-04-13 20:33:00,
2013-04-13 15:39:00,45.2,31.3,29.86,NNW,341,3.0,3.0,58,0.00,,,0.00,Wunderground v.1.15,2013-04-13 20:39:00,
2013-04-13 15:45:00,44.5,30.6,29.86,NW,309,3.0,11.0,58,0.00,,,0.00,Wunderground v.1.15,2013-04-13 20:45:00,
2013-04-13 15:51:00,44.9,31.4,29.86,WNW,284,3.0,11.0,59,0.00,,,0.00,Wunderground v.1.15,2013-04-13 20:51:00,
2013-04-13 15:57:00,45.0,30.7,29.86,NNW,329,3.0,11.0,57,0.00,,,0.00,Wunderground v.1.15,2013-04-13 20:57:00,
2013-04-13 16:03:00,44.5,31.1,29.86,WNW,295,4.0,11.0,59,0.00,,,0.00,Wunderground v.1.15,2013-04-13 21:03:00,
2013-04-13 16:09:00,45.1,30.8,29.86,West,280,4.0,11.0,57,0.00,,,0.00,Wunderground v.1.15,2013-04-13 21:09:00,
2013-04-13 16:15:00,44.4,31.0,29.86,WSW,248,5.0,11.0,59,0.00,,,0.00,Wunderground v.1.15,2013-04-13 21:15:00,
2013-04-13 16:21:00,44.2,31.2,29.86,NW,323,4.0,11.0,60,0.00,,,0.00,Wunderground v.1.15,2013-04-13 21:21:00,
2013-04-13 16:27:00,44.6,31.6,29.86,NNW,333,3.0,11.0,60,0.00,,,0.00,Wunderground v.1.15,2013-04-13 21:27:00,
2013-04-13 16:33:00,45.0,31.5,29.86,NW,322,3.0,11.0,59,0.00,,,0.00,Wunderground v.1.15,2013-04-13 21:33:00,
2013-04-13 16:39:00,45.4,31.0,29.86,WNW,298,4.0,4.0,57,0.00,,,0.00,Wunderground v.1.15,2013-04-13 21:39:00,
2013-04-13 16:45:00,44.6,30.7,29.85,West,277,5.0,11.0,58,0.00,,,0.00,Wunderground v.1.15,2013-04-13 21:45:00,
2013-04-13 16:51:00,44.7,31.2,29.85,West,263,3.0,11.0,59,0.00,,,0.00,Wunderground v.1.15,2013-04-13 21:51:00,
2013-04-13 16:57:00,45.6,31.7,29.85,WNW,283,3.0,11.0,58,0.00,,,0.00,Wunderground v.1.15,2013-04-13 21:57:00,
2013-04-13 17:03:00,45.2,31.7,29.85,West,273,3.0,11.0,59,0.00,,,0.00,Wunderground v.1.15,2013-04-13 22:03:00,
2013-04-13 17:09:00,46.4,32.0,29.85,NW,309,3.0,11.0,57,0.00,,,0.00,Wunderground v.1.15,2013-04-13 22:09:00,
2013-04-13 17:15:00,46.5,31.6,29.85,NW,323,4.0,11.0,56,0.00,,,0.00,Wunderground v.1.15,2013-04-13 22:15:00,
2013-04-13 17:21:00,46.0,31.6,29.85,NW,309,3.0,11.0,57,0.00,,,0.00,Wunderground v.1.15,2013-04-13 22:21:00,
2013-04-13 17:27:00,46.0,32.0,29.85,SSW,212,3.0,11.0,58,0.00,,,0.00,Wunderground v.1.15,2013-04-13 22:27:00,
2013-04-13 17:33:00,46.1,31.7,29.85,West,259,3.0,11.0,57,0.00,,,0.00,Wunderground v.1.15,2013-04-13 22:33:00,
2013-04-13 17:39:00,45.7,31.8,29.85,WSW,255,3.0,11.0,58,0.00,,,0.00,Wunderground v.1.15,2013-04-13 22:39:00,
2013-04-13 17:45:00,45.3,31.8,29.85,West,273,2.0,11.0,59,0.00,,,0.00,Wunderground v.1.15,2013-04-13 22:45:00,
2013-04-13 17:51:00,45.4,31.9,29.85,NW,313,1.0,11.0,59,0.00,,,0.00,Wunderground v.1.15,2013-04-13 22:51:00,
2013-04-13 17:57:00,45.3,31.8,29.85,West,269,2.0,11.0,59,0.00,,,0.00,Wunderground v.1.15,2013-04-13 22:57:00,
2013-04-13 18:03:00,44.8,31.8,29.85,WNW,295,2.0,11.0,60,0.00,,,0.00,Wunderground v.1.15,2013-04-13 23:03:00,
2013-04-13 18:09:00,44.5,31.5,29.85,NW,309,2.0,2.0,60,0.00,,,0.00,Wunderground v.1.15,2013-04-13 23:09:00,
2013-04-13 18:15:00,44.6,32.0,29.85,WNW,283,1.0,11.0,61,0.00,,,0.00,Wunderground v.1.15,2013-04-13 23:15:00,
2013-04-13 18:21:00,44.7,31.7,29.85,NW,308,2.0,11.0,60,0.00,,,0.00,Wunderground v.1.15,2013-04-13 23:21:00,
2013-04-13 18:27:00,44.7,31.7,29.85,WNW,290,2.0,11.0,60,0.00,,,0.00,Wunderground v.1.15,2013-04-13 23:27:00,
2013-04-13 18:33:00,44.7,32.1,29.84,North,9,1.0,11.0,61,0.00,,,0.00,Wunderground v.1.15,2013-04-13 23:33:00,
2013-04-13 18:39:00,44.5,31.9,29.85,NW,315,1.0,11.0,61,0.00,,,0.00,Wunderground v.1.15,2013-04-13 23:39:00,
2013-04-13 18:45:00,44.3,31.7,29.84,NW,304,1.0,11.0,61,0.00,,,0.00,Wunderground v.1.15,2013-04-13 23:45:00,
2013-04-13 18:51:00,44.2,32.0,29.84,WSW,248,1.0,11.0,62,0.00,,,0.00,Wunderground v.1.15,2013-04-13 23:51:00,
2013-04-13 18:58:00,44.1,31.9,29.84,WNW,294,0.0,11.0,62,0.00,,,0.00,Wunderground v.1.15,2013-04-13 23:58:00,
2013-04-13 19:03:00,44.1,31.9,29.84,West,280,0.0,11.0,62,0.00,,,0.00,Wunderground v.1.15,2013-04-14 00:03:00,
2013-04-13 19:09:00,44.1,31.9,29.83,NW,311,1.0,1.0,62,0.00,,,0.00,Wunderground v.1.15,2013-04-14 00:09:00,
2013-04-13 19:15:00,44.0,31.8,29.83,WNW,290,1.0,11.0,62,0.00,,,0.00,Wunderground v.1.15,2013-04-14 00:15:00,
2013-04-13 19:21:00,43.7,31.5,29.83,NE,54,0.0,11.0,62,0.00,,,0.00,Wunderground v.1.15,2013-04-14 00:21:00,
2013-04-13 19:27:00,43.6,31.4,29.83,NE,49,0.0,11.0,62,0.00,,,0.00,Wunderground v.1.15,2013-04-14 00:27:00,
2013-04-13 19:33:00,43.6,31.4,29.83,NE,39,1.0,11.0,62,0.00,,,0.00,Wunderground v.1.15,2013-04-14 00:33:00,
2013-04-13 19:39:00,43.5,31.7,29.83,NE,40,1.0,11.0,63,0.00,,,0.00,Wunderground v.1.15,2013-04-14 00:39:00,
2013-04-13 19:45:00,43.4,31.6,29.82,NNW,334,1.0,11.0,63,0.00,,,0.00,Wunderground v.1.15,2013-04-14 00:45:00,
2013-04-13 19:51:00,43.4,31.6,29.83,NE,48,0.0,11.0,63,0.00,,,0.00,Wunderground v.1.15,2013-04-14 00:51:00,
2013-04-13 19:57:00,43.4,31.6,29.83,NE,48,0.0,11.0,63,0.00,,,0.00,Wunderground v.1.15,2013-04-14 00:57:00,
2013-04-13 20:03:00,43.4,31.6,29.83,NW,326,0.0,11.0,63,0.00,,,0.00,Wunderground v.1.15,2013-04-14 01:03:00,
2013-04-13 20:09:00,43.3,31.9,29.83,ENE,62,1.0,11.0,64,0.00,,,0.00,Wunderground v.1.15,2013-04-14 01:09:00,
2013-04-13 20:15:00,43.2,31.4,29.84,NE,49,1.0,11.0,63,0.00,,,0.00,Wunderground v.1.15,2013-04-14 01:15:00,
2013-04-13 20:21:00,43.1,31.7,29.84,ENE,68,1.0,11.0,64,0.00,,,0.00,Wunderground v.1.15,2013-04-14 01:21:00,
2013-04-13 20:27:00,43.0,31.6,29.85,ENE,64,1.0,11.0,64,0.00,,,0.00,Wunderground v.1.15,2013-04-14 01:27:00,
2013-04-13 20:33:00,43.0,31.6,29.85,North,4,0.0,11.0,64,0.00,,,0.00,Wunderground v.1.15,2013-04-14 01:33:00,
2013-04-13 20:39:00,42.9,31.9,29.84,NE,49,0.0,11.0,65,0.00,,,0.00,Wunderground v.1.15,2013-04-14 01:39:00,
2013-04-13 20:45:00,42.8,31.8,29.85,ENE,57,1.0,11.0,65,0.00,,,0.00,Wunderground v.1.15,2013-04-14 01:45:00,
2013-04-13 20:51:00,42.7,32.1,29.85,NE,51,1.0,11.0,66,0.00,,,0.00,Wunderground v.1.15,2013-04-14 01:51:00,
2013-04-13 20:57:00,42.6,32.0,29.85,ENE,73,1.0,11.0,66,0.00,,,0.00,Wunderground v.1.15,2013-04-14 01:57:00,
2013-04-13 21:03:00,42.5,32.3,29.86,East,83,1.0,11.0,67,0.00,,,0.00,Wunderground v.1.15,2013-04-14 02:03:00,
2013-04-13 21:09:00,42.5,32.3,29.86,NNE,20,1.0,1.0,67,0.00,,,0.00,Wunderground v.1.15,2013-04-14 02:09:00,
2013-04-13 21:15:00,42.4,32.2,29.86,ENE,74,1.0,11.0,67,0.00,,,0.00,Wunderground v.1.15,2013-04-14 02:15:00,
2013-04-13 21:21:00,42.3,32.5,29.86,East,95,1.0,11.0,68,0.00,,,0.00,Wunderground v.1.15,2013-04-14 02:21:00,
2013-04-13 21:27:00,42.2,32.4,29.85,ENE,69,1.0,11.0,68,0.00,,,0.00,Wunderground v.1.15,2013-04-14 02:27:00,
2013-04-13 21:33:00,42.2,32.4,29.86,East,97,1.0,11.0,68,0.00,,,0.00,Wunderground v.1.15,2013-04-14 02:33:00,
2013-04-13 21:39:00,42.1,32.7,29.87,ENE,72,1.0,11.0,69,0.00,,,0.00,Wunderground v.1.15,2013-04-14 02:39:00,
2013-04-13 21:45:00,42.0,32.6,29.86,ENE,57,2.0,11.0,69,0.00,,,0.00,Wunderground v.1.15,2013-04-14 02:45:00,
2013-04-13 21:52:00,41.9,32.8,29.87,ENE,74,2.0,11.0,70,0.00,,,0.00,Wunderground v.1.15,2013-04-14 02:52:00,
2013-04-13 21:57:00,41.7,33.0,29.87,ESE,122,2.0,11.0,71,0.00,,,0.00,Wunderground v.1.15,2013-04-14 02:57:00,
2013-04-13 22:03:00,41.6,32.9,29.86,ENE,71,2.0,11.0,71,0.00,,,0.00,Wunderground v.1.15,2013-04-14 03:03:00,
2013-04-13 22:09:00,41.5,32.8,29.87,ENE,74,2.0,2.0,71,0.00,,,0.00,Wunderground v.1.15,2013-04-14 03:09:00,
2013-04-13 22:15:00,41.4,33.0,29.87,SE,124,2.0,11.0,72,0.00,,,0.00,Wunderground v.1.15,2013-04-14 03:15:00,
2013-04-13 22:21:00,41.3,33.0,29.86,ENE,78,1.0,11.0,72,0.00,,,0.00,Wunderground v.1.15,2013-04-14 03:21:00,
2013-04-13 22:27:00,41.3,32.6,29.87,East,86,2.0,11.0,71,0.00,,,0.00,Wunderground v.1.15,2013-04-14 03:27:00,
2013-04-13 22:33:00,41.2,32.9,29.87,SE,127,2.0,11.0,72,0.00,,,0.00,Wunderground v.1.15,2013-04-14 03:33:00,
2013-04-13 22:39:00,41.2,32.9,29.88,ESE,110,1.0,1.0,72,0.00,,,0.00,Wunderground v.1.15,2013-04-14 03:39:00,
2013-04-13 22:45:00,41.1,32.8,29.88,ESE,110,1.0,11.0,72,0.00,,,0.00,Wunderground v.1.15,2013-04-14 03:45:00,
2013-04-13 22:51:00,41.0,32.7,29.87,East,101,2.0,11.0,72,0.00,,,0.00,Wunderground v.1.15,2013-04-14 03:51:00,
2013-04-13 22:57:00,40.9,32.6,29.87,East,97,2.0,11.0,72,0.00,,,0.00,Wunderground v.1.15,2013-04-14 03:57:00,
2013-04-13 23:01:00,40.9,32.6,29.87,ESE,103,2.0,11.0,72,0.00,,,0.00,Wunderground v.1.15,2013-04-14 04:01:00,
2013-04-13 23:03:00,40.9,32.6,29.87,East,94,2.0,11.0,72,0.00,,,0.00,Wunderground v.1.15,2013-04-14 04:03:00,
2013-04-13 23:05:00,40.9,32.6,29.87,East,81,1.0,11.0,72,0.00,,,0.00,Wunderground v.1.15,2013-04-14 04:05:00,
2013-04-13 23:11:00,40.8,32.5,29.87,ENE,71,1.0,11.0,72,0.00,,,0.00,Wunderground v.1.15,2013-04-14 04:11:00,
2013-04-13 23:17:00,40.8,32.8,29.87,East,79,1.0,11.0,73,0.00,,,0.00,Wunderground v.1.15,2013-04-14 04:17:00,
2013-04-13 23:23:00,40.7,32.7,29.87,ESE,122,2.0,11.0,73,0.00,,,0.00,Wunderground v.1.15,2013-04-14 04:23:00,
2013-04-13 23:29:00,40.6,32.6,29.86,East,80,2.0,11.0,73,0.00,,,0.00,Wunderground v.1.15,2013-04-14 04:29:00,
2013-04-13 23:35:00,40.5,32.5,29.86,ESE,110,3.0,11.0,73,0.00,,,0.00,Wunderground v.1.15,2013-04-14 04:35:00,
2013-04-13 23:41:00,40.4,32.8,29.86,ESE,105,3.0,11.0,74,0.00,,,0.00,Wunderground v.1.15,2013-04-14 04:41:00,
2013-04-13 23:47:00,40.4,32.8,29.86,ENE,78,2.0,11.0,74,0.00,,,0.00,Wunderground v.1.15,2013-04-14 04:47:00,
2013-04-13 23:53:00,40.3,32.3,29.86,ESE,113,3.0,11.0,73,0.00,,,0.00,Wunderground v.1.15,2013-04-14 04:53:00,
2013-04-13 23:59:00,40.3,32.3,29.86,East,79,3.0,4.0,73,0.00,,,0.00,Wunderground v.1.15,2013-04-14 04:59:00,